| time (UTC) | temp F | wind direction | speed MPH | gust MPH | rain 1hr in | rain 24hr in | rain mn in | humidity % | barometer mb |
| 20260508030018 | 49 | 24 | 0.0 | 2.0 | 0.00 | 0.00 | 0.00 | 47 | 1012.3 |
| 20260508024520 | 46 | 20 | 0.0 | 1.0 | 0.00 | 0.00 | 0.00 | 56 | 1012.2 |
| 20260508023016 | 46 | 20 | 0.0 | 1.0 | 0.00 | 0.00 | 0.00 | 59 | 1012.0 |
| 20260508021517 | 47 | 20 | 0.0 | 0.0 | 0.00 | 0.00 | 0.00 | 59 | 1011.7 |
| 20260508020016 | 48 | 20 | 0.0 | 0.0 | 0.00 | 0.00 | 0.00 | 56 | 1011.3 |
| 20260508014516 | 50 | 20 | 0.0 | 0.0 | 0.00 | 0.00 | 0.00 | 54 | 1011.0 |
| 20260508013014 | 53 | 20 | 0.0 | 0.0 | 0.00 | 0.00 | 0.00 | 49 | 1010.9 |
| 20260508011514 | 57 | 20 | 0.0 | 0.0 | 0.00 | 0.00 | 0.00 | 42 | 1010.6 |
| 20260508010025 | 60 | 20 | 0.0 | 3.0 | 0.00 | 0.00 | 0.00 | 34 | 1010.5 |
| 20260508004527 | 62 | 22 | 1.0 | 7.0 | 0.00 | 0.00 | 0.00 | 32 | 1010.4 |
| 20260508003011 | 62 | 32 | 2.0 | 8.0 | 0.00 | 0.00 | 0.00 | 31 | 1010.3 |
| 20260508001511 | 63 | 38 | 2.0 | 6.0 | 0.00 | 0.00 | 0.00 | 30 | 1010.3 |
| 20260508000010 | 64 | 21 | 3.0 | 10.0 | 0.00 | 0.00 | 0.00 | 30 | 1010.2 |
| 20260507234518 | 64 | 35 | 2.0 | 7.0 | 0.00 | 0.00 | 0.00 | 30 | 1010.4 |
| 20260507233013 | 65 | 23 | 6.0 | 10.0 | 0.00 | 0.00 | 0.00 | 29 | 1010.3 |
| 20260507231507 | 65 | 337 | 3.0 | 13.0 | 0.00 | 0.00 | 0.00 | 29 | 1010.4 |
| 20260507220039 | 65 | 295 | 2.0 | 7.0 | 0.00 | 0.00 | 0.00 | 31 | 1010.7 |
| 20260507214545 | 65 | 316 | 2.0 | 7.0 | 0.00 | 0.00 | 0.00 | 31 | 1010.9 |
| 20260507213042 | 65 | 297 | 2.0 | 14.0 | 0.00 | 0.00 | 0.00 | 31 | 1010.8 |
| 20260507211547 | 65 | 262 | 2.0 | 10.0 | 0.00 | 0.00 | 0.00 | 35 | 1010.7 |
| 20260507210034 | 65 | 291 | 3.0 | 8.0 | 0.00 | 0.00 | 0.00 | 33 | 1010.9 |
| 20260507204531 | 65 | 283 | 0.0 | 5.0 | 0.00 | 0.00 | 0.00 | 33 | 1011.0 |
| 20260507203034 | 64 | 312 | 7.0 | 16.0 | 0.00 | 0.00 | 0.00 | 32 | 1011.1 |
| 20260507201530 | 64 | 129 | 1.0 | 11.0 | 0.00 | 0.00 | 0.00 | 34 | 1011.2 |
| 20260507200028 | 64 | 313 | 6.0 | 13.0 | 0.00 | 0.00 | 0.00 | 32 | 1011.4 |
| 20260507194528 | 65 | 339 | 5.0 | 13.0 | 0.00 | 0.00 | 0.00 | 32 | 1011.7 |
| 20260507193027 | 64 | 304 | 2.0 | 14.0 | 0.00 | 0.00 | 0.00 | 36 | 1011.7 |
| 20260507191527 | 63 | 301 | 5.0 | 11.0 | 0.00 | 0.00 | 0.00 | 35 | 1011.7 |
| 20260507190021 | 62 | 295 | 4.0 | 12.0 | 0.00 | 0.00 | 0.00 | 35 | 1011.8 |
| 20260507184520 | 62 | 328 | 5.0 | 12.0 | 0.00 | 0.00 | 0.00 | 34 | 1011.6 |
| 20260507183018 | 62 | 30 | 3.0 | 8.0 | 0.00 | 0.00 | 0.00 | 39 | 1011.8 |
| 20260507181517 | 60 | 32 | 4.0 | 11.0 | 0.00 | 0.00 | 0.00 | 38 | 1011.8 |
| 20260507180014 | 60 | 48 | 7.0 | 15.0 | 0.00 | 0.00 | 0.00 | 37 | 1011.9 |
| 20260507174534 | 61 | 28 | 5.0 | 16.0 | 0.00 | 0.00 | 0.00 | 37 | 1012.0 |
| 20260507173016 | 61 | 318 | 3.0 | 9.0 | 0.00 | 0.00 | 0.00 | 39 | 1012.4 |
| 20260507171510 | 60 | 224 | 2.0 | 10.0 | 0.00 | 0.00 | 0.00 | 42 | 1012.4 |
| 20260507170008 | 60 | 243 | 3.0 | 9.0 | 0.00 | 0.00 | 0.00 | 39 | 1012.6 |
| 20260507164506 | 59 | 302 | 4.0 | 8.0 | 0.00 | 0.00 | 0.00 | 42 | 1012.6 |
| 20260507163003 | 59 | 264 | 2.0 | 7.0 | 0.00 | 0.00 | 0.00 | 45 | 1013.0 |
| 20260507161501 | 58 | 14 | 3.0 | 7.0 | 0.00 | 0.00 | 0.00 | 45 | 1012.9 |
| 20260507160117 | 57 | 311 | 0.0 | 6.0 | 0.00 | 0.00 | 0.00 | 51 | 1012.9 |
| 20260507154556 | 57 | 247 | 1.0 | 6.0 | 0.00 | 0.00 | 0.00 | 45 | 1013.0 |
| 20260507153051 | 55 | 290 | 1.0 | 6.0 | 0.00 | 0.00 | 0.00 | 51 | 1013.1 |
| 20260507151556 | 54 | 129 | 0.0 | 5.0 | 0.00 | 0.00 | 0.00 | 53 | 1013.4 |
| 20260507150045 | 53 | 233 | 0.0 | 5.0 | 0.00 | 0.00 | 0.00 | 51 | 1013.5 |
| 20260507144543 | 52 | 116 | 0.0 | 4.0 | 0.00 | 0.00 | 0.00 | 55 | 1013.6 |
| 20260507143039 | 51 | 132 | 0.0 | 3.0 | 0.00 | 0.00 | 0.00 | 54 | 1013.7 |
| 20260507141537 | 50 | 50 | 0.0 | 3.0 | 0.00 | 0.00 | 0.00 | 54 | 1014.1 |
| 20260507140041 | 48 | 127 | 0.0 | 4.0 | 0.00 | 0.00 | 0.00 | 59 | 1014.2 |
| 20260507134529 | 47 | 144 | 0.0 | 3.0 | 0.00 | 0.00 | 0.00 | 61 | 1014.5 |
| 20260507133025 | 45 | 115 | 0.0 | 3.0 | 0.00 | 0.00 | 0.00 | 62 | 1014.5 |
| 20260507131534 | 43 | 100 | 1.0 | 6.0 | 0.00 | 0.00 | 0.00 | 66 | 1014.7 |
| 20260507130017 | 42 | 37 | 1.0 | 5.0 | 0.00 | 0.00 | 0.00 | 67 | 1015.0 |
| 20260507124517 | 41 | 134 | 0.0 | 2.0 | 0.00 | 0.00 | 0.00 | 71 | 1014.8 |
| 20260507123010 | 39 | 122 | 0.0 | 1.0 | 0.00 | 0.00 | 0.00 | 72 | 1014.9 |
| 20260507121505 | 38 | 201 | 0.0 | 3.0 | 0.00 | 0.00 | 0.00 | 75 | 1014.6 |
| 20260507120004 | 36 | 96 | 0.0 | 4.0 | 0.00 | 0.00 | 0.00 | 75 | 1014.7 |
| 20260507114502 | 36 | 15 | 0.0 | 5.0 | 0.00 | 0.00 | 0.00 | 74 | 1014.9 |
| 20260507113003 | 36 | 79 | 0.0 | 3.0 | 0.00 | 0.00 | 0.00 | 74 | 1014.9 |
| 20260507111501 | 36 | 153 | 0.0 | 2.0 | 0.00 | 0.00 | 0.00 | 76 | 1014.7 |
| 20260507110001 | 35 | 108 | 0.0 | 3.0 | 0.00 | 0.00 | 0.00 | 76 | 1014.7 |
| 20260507104612 | 35 | 121 | 0.0 | 1.0 | 0.00 | 0.00 | 0.00 | 77 | 1014.7 |
| 20260507103058 | 34 | 121 | 0.0 | 1.0 | 0.00 | 0.00 | 0.00 | 77 | 1014.9 |
| 20260507101557 | 34 | 121 | 0.0 | 0.0 | 0.00 | 0.00 | 0.00 | 76 | 1015.1 |
| 20260507100100 | 35 | 121 | 0.0 | 0.0 | 0.00 | 0.00 | 0.00 | 74 | 1015.2 |
| 20260507094605 | 36 | 121 | 0.0 | 0.0 | 0.00 | 0.00 | 0.00 | 71 | 1015.3 |
| 20260507093053 | 37 | 121 | 0.0 | 1.0 | 0.00 | 0.00 | 0.00 | 69 | 1015.4 |
| 20260507091553 | 37 | 121 | 0.0 | 2.0 | 0.00 | 0.00 | 0.00 | 70 | 1015.5 |
| 20260507090047 | 37 | 134 | 0.0 | 1.0 | 0.00 | 0.00 | 0.00 | 72 | 1015.6 |
| 20260507084553 | 36 | 134 | 0.0 | 1.0 | 0.00 | 0.00 | 0.00 | 72 | 1015.6 |
| 20260507083040 | 35 | 32 | 0.0 | 1.0 | 0.00 | 0.00 | 0.00 | 74 | 1015.8 |
| 20260507081537 | 35 | 30 | 0.0 | 1.0 | 0.00 | 0.00 | 0.00 | 76 | 1016.0 |
| 20260507080033 | 34 | 30 | 0.0 | 1.0 | 0.00 | 0.00 | 0.00 | 79 | 1016.0 |
| 20260507074530 | 32 | 30 | 0.0 | 1.0 | 0.00 | 0.00 | 0.00 | 82 | 1016.2 |
| 20260507073027 | 31 | 30 | 0.0 | 1.0 | 0.00 | 0.00 | 0.00 | 84 | 1016.4 |
| 20260507071523 | 29 | 30 | 0.0 | 0.0 | 0.00 | 0.00 | 0.00 | 85 | 1016.5 |
| 20260507070024 | 28 | 30 | 0.0 | 0.0 | 0.00 | 0.00 | 0.00 | 84 | 1016.6 |
| 20260507064520 | 28 | 30 | 0.0 | 0.0 | 0.00 | 0.00 | 0.00 | 82 | 1016.9 |
| 20260507063018 | 28 | 30 | 0.0 | 0.0 | 0.00 | 0.00 | 0.00 | 82 | 1016.8 |
| 20260507061516 | 29 | 30 | 0.0 | 0.0 | 0.00 | 0.00 | 0.00 | 82 | 1017.0 |
| 20260507060017 | 29 | 30 | 0.0 | 0.0 | 0.00 | 0.00 | 0.00 | 81 | 1017.3 |
| 20260507054513 | 29 | 30 | 0.0 | 0.0 | 0.00 | 0.00 | 0.00 | 80 | 1017.3 |
| 20260507053010 | 30 | 30 | 0.0 | 0.0 | 0.00 | 0.00 | 0.00 | 79 | 1017.4 |
| 20260507051509 | 31 | 30 | 0.0 | 0.0 | 0.00 | 0.00 | 0.00 | 79 | 1017.3 |
| 20260507050024 | 30 | 30 | 0.0 | 0.0 | 0.00 | 0.00 | 0.00 | 79 | 1017.3 |
| 20260507044504 | 31 | 30 | 0.0 | 0.0 | 0.00 | 0.00 | 0.00 | 77 | 1017.3 |
| 20260507043004 | 32 | 30 | 0.0 | 0.0 | 0.00 | 0.00 | 0.00 | 75 | 1017.4 |
| 20260507041504 | 32 | 30 | 0.0 | 0.0 | 0.00 | 0.00 | 0.00 | 76 | 1017.4 |
| 20260507040004 | 32 | 30 | 0.0 | 0.0 | 0.00 | 0.00 | 0.00 | 74 | 1017.4 |
| 20260507034505 | 33 | 30 | 0.0 | 0.0 | 0.00 | 0.00 | 0.00 | 73 | 1017.5 |
| 20260507033002 | 33 | 30 | 0.0 | 0.0 | 0.00 | 0.00 | 0.00 | 73 | 1017.5 |
| 20260507031505 | 34 | 30 | 0.0 | 0.0 | 0.00 | 0.00 | 0.00 | 71 | 1017.5 |